Location: Leuk
(46.3174°N, 7.6341°E)
Time: 15:31:05
(UTC+00:00)

USA 267 - Pass Details

Date: 09 March 2021
Orbit: 1099 x 1108 km, 123.0° (Epoch: 20 March)

Event Time Altitude Azimuth Distance (km) Brightness Sun altitude
Rises 01:42:02 0° 52° (NE) 3,923 7.0 -40.5°
Reaches altitude 10° 01:44:33 10° 56° (NE) 2,962 6.2 -40.2°
Enters shadow 01:48:35 39° 72° (ENE) 1,590 4.3 -39.7°
